FDX2402 MDSD-MMUN

Flight info

Callsign FDX2402
Flight time N/A
Altitude 32000
Route ETBOD UA890 PAP UL577 ILUBA
Aircraft A306/H-SDE3FGHIRWY/LB1

Departure

Time 2026-04-28 16:45
Airport Las Américas International Airport (MDSD)

Arrival

Time N/A
Airport Cancún International Airport (MMUN)
Time Latitude Longitude Altitude Speed Heading
2026-04-28 16:17 18.43526 -69.67647 53 ft 0 kts 295°
2026-04-28 16:35 18.43520 -69.67635 53 ft 2 kts 295°
2026-04-28 16:36 18.43514 -69.67621 54 ft 2 kts 295°
2026-04-28 16:36 18.43508 -69.67606 55 ft 2 kts 295°
2026-04-28 16:36 18.43501 -69.67592 55 ft 2 kts 295°
2026-04-28 16:36 18.43495 -69.67577 56 ft 2 kts 295°
2026-04-28 16:37 18.43488 -69.67563 56 ft 2 kts 295°
2026-04-28 16:37 18.43482 -69.67548 56 ft 2 kts 295°
2026-04-28 16:37 18.43475 -69.67540 56 ft 1 kts 340°
2026-04-28 16:38 18.43472 -69.67539 56 ft 0 kts 339°
2026-04-28 16:40 18.43477 -69.67541 56 ft 2 kts 339°
2026-04-28 16:41 18.43510 -69.67554 56 ft 8 kts 339°
2026-04-28 16:41 18.43589 -69.67586 55 ft 15 kts 339°
2026-04-28 16:41 18.43713 -69.67637 53 ft 22 kts 338°
2026-04-28 16:41 18.43872 -69.67703 51 ft 16 kts 338°
2026-04-28 16:42 18.43999 -69.67756 49 ft 23 kts 339°
2026-04-28 16:42 18.44104 -69.67790 49 ft 11 kts 14°
2026-04-28 16:42 18.44153 -69.67722 50 ft 13 kts 75°
2026-04-28 16:42 18.44189 -69.67615 52 ft 17 kts 68°
2026-04-28 16:43 18.44289 -69.67526 55 ft 21 kts 24°
2026-04-28 16:43 18.44343 -69.67406 58 ft 22 kts 135°
2026-04-28 16:43 18.44284 -69.67375 58 ft 0 kts 164°
2026-04-28 16:44 18.44211 -69.67351 60 ft 33 kts 160°
2026-04-28 16:44 18.43770 -69.67188 65 ft 102 kts 160°
2026-04-28 16:44 18.42856 -69.66851 73 ft 165 kts 161°
2026-04-28 16:44 18.41683 -69.66412 427 ft 185 kts 159°
2026-04-28 16:45 18.40433 -69.65926 818 ft 205 kts 160°
2026-04-28 16:45 18.39066 -69.65440 1530 ft 212 kts 165°
2026-04-28 16:45 18.37575 -69.65542 1884 ft 224 kts 207°
2026-04-28 16:45 18.36433 -69.66727 2258 ft 236 kts 242°
2026-04-28 16:46 18.35734 -69.68428 2620 ft 256 kts 250°
2026-04-28 16:46 18.35132 -69.70243 3238 ft 266 kts 251°
2026-04-28 16:46 18.34543 -69.72113 4024 ft 271 kts 252°
2026-04-28 16:46 18.33965 -69.73982 4824 ft 273 kts 252°
2026-04-28 16:47 18.33379 -69.75890 5607 ft 276 kts 252°
2026-04-28 16:47 18.32994 -69.77869 6354 ft 279 kts 268°
2026-04-28 16:47 18.33024 -69.79919 7103 ft 282 kts 274°
2026-04-28 16:47 18.33101 -69.81072 7504 ft 284 kts 275°
2026-04-28 16:48 18.33268 -69.83054 8191 ft 288 kts 276°
2026-04-28 16:48 18.33460 -69.85144 8916 ft 291 kts 276°
2026-04-28 16:48 18.33662 -69.87283 9642 ft 294 kts 276°
2026-04-28 16:48 18.33864 -69.89407 10323 ft 299 kts 276°
2026-04-28 16:49 18.34079 -69.91668 10615 ft 318 kts 276°
2026-04-28 16:49 18.34305 -69.94044 10830 ft 340 kts 276°
2026-04-28 16:49 18.34547 -69.96594 11030 ft 361 kts 276°
2026-04-28 16:49 18.34804 -69.99315 11240 ft 382 kts 276°
2026-04-28 16:50 18.35071 -70.02136 11745 ft 393 kts 276°
2026-04-28 16:50 18.35341 -70.05003 12408 ft 398 kts 276°
2026-04-28 16:50 18.35613 -70.07893 13105 ft 402 kts 276°
2026-04-28 16:50 18.35890 -70.10841 13797 ft 405 kts 276°
2026-04-28 16:51 18.36166 -70.13780 14434 ft 409 kts 276°
2026-04-28 16:51 18.36445 -70.16759 15045 ft 413 kts 276°
2026-04-28 16:51 18.36729 -70.19795 15664 ft 417 kts 276°
2026-04-28 16:51 18.37011 -70.22808 16267 ft 420 kts 276°
2026-04-28 16:52 18.37298 -70.25888 16869 ft 424 kts 276°
2026-04-28 16:52 18.37587 -70.28986 17452 ft 427 kts 276°
2026-04-28 16:52 18.37873 -70.32072 18013 ft 430 kts 276°
2026-04-28 16:52 18.38165 -70.35215 18564 ft 434 kts 276°
2026-04-28 16:53 18.38459 -70.38392 19105 ft 437 kts 276°
2026-04-28 16:53 18.38746 -70.41565 19632 ft 441 kts 276°
2026-04-28 16:53 18.39039 -70.44810 20173 ft 444 kts 276°
2026-04-28 16:53 18.39334 -70.48041 20714 ft 447 kts 276°
2026-04-28 16:54 18.39632 -70.51299 21255 ft 450 kts 276°
2026-04-28 16:54 18.39936 -70.54609 21784 ft 453 kts 276°
2026-04-28 16:54 18.40236 -70.57890 22278 ft 457 kts 277°
2026-04-28 16:54 18.40442 -70.60145 22605 ft 459 kts 277°
2026-04-28 16:55 18.40848 -70.64592 23247 ft 463 kts 277°
2026-04-28 16:55 18.41157 -70.67993 23725 ft 466 kts 276°
2026-04-28 16:55 18.41466 -70.71398 24184 ft 469 kts 276°
2026-04-28 16:55 18.41775 -70.74810 24628 ft 472 kts 276°
2026-04-28 16:56 18.42089 -70.78281 25078 ft 475 kts 276°
2026-04-28 16:56 18.42398 -70.81712 25538 ft 479 kts 276°
2026-04-28 16:56 18.42717 -70.85245 26033 ft 481 kts 276°
2026-04-28 16:56 18.43029 -70.88719 26497 ft 483 kts 277°
2026-04-28 16:57 18.43345 -70.92257 26920 ft 484 kts 277°
2026-04-28 16:57 18.43661 -70.95782 27282 ft 485 kts 277°
2026-04-28 16:57 18.43973 -70.99284 27566 ft 486 kts 277°
2026-04-28 16:57 18.44287 -71.02811 27957 ft 484 kts 277°
2026-04-28 16:58 18.44599 -71.06319 28329 ft 482 kts 277°
2026-04-28 16:58 18.44912 -71.09847 28639 ft 481 kts 277°
2026-04-28 16:58 18.45220 -71.13330 28911 ft 481 kts 277°
2026-04-28 16:58 18.45528 -71.16814 29158 ft 480 kts 277°
2026-04-28 16:59 18.45838 -71.20341 29389 ft 479 kts 277°
2026-04-28 16:59 18.46141 -71.23782 29612 ft 479 kts 277°
2026-04-28 16:59 18.46449 -71.27291 29842 ft 478 kts 277°
2026-04-28 16:59 18.46754 -71.30771 30071 ft 477 kts 277°
2026-04-28 17:00 18.47054 -71.34207 30296 ft 476 kts 277°
2026-04-28 17:00 18.47358 -71.37685 30518 ft 476 kts 277°
2026-04-28 17:00 18.47658 -71.41138 30728 ft 475 kts 277°
2026-04-28 17:00 18.47960 -71.44617 30922 ft 474 kts 277°
2026-04-28 17:01 18.48259 -71.48064 31094 ft 473 kts 277°
2026-04-28 17:01 18.48554 -71.51479 31246 ft 472 kts 277°
2026-04-28 17:01 18.48853 -71.54937 31387 ft 472 kts 277°
2026-04-28 17:01 18.49145 -71.58336 31524 ft 471 kts 277°
2026-04-28 17:02 18.49441 -71.61772 31647 ft 470 kts 277°
2026-04-28 17:02 18.50025 -71.68600 31894 ft 468 kts 277°
2026-04-28 17:02 18.50316 -71.72008 32006 ft 467 kts 277°
2026-04-28 17:03 18.50895 -71.78803 32020 ft 466 kts 277°
2026-04-28 17:03 18.51468 -71.85565 32021 ft 465 kts 277°
2026-04-28 17:04 18.52681 -71.95660 32018 ft 464 kts 281°
2026-04-28 17:05 18.54162 -72.05736 32020 ft 464 kts 280°
2026-04-28 17:06 18.55595 -72.15827 32020 ft 464 kts 280°
2026-04-28 17:06 18.57016 -72.25845 32018 ft 464 kts 280°
2026-04-28 17:07 18.57539 -72.32634 32032 ft 466 kts 267°
2026-04-28 17:07 18.56549 -72.39376 32021 ft 469 kts 261°
2026-04-28 17:08 18.55500 -72.46121 32021 ft 468 kts 263°
2026-04-28 17:08 18.54586 -72.52936 32022 ft 468 kts 264°
2026-04-28 17:09 18.53675 -72.59674 32022 ft 468 kts 264°
2026-04-28 17:09 18.52743 -72.66460 32020 ft 468 kts 263°
2026-04-28 17:10 18.51808 -72.73253 32019 ft 468 kts 263°
2026-04-28 17:10 18.50879 -72.79998 32019 ft 468 kts 263°
2026-04-28 17:11 18.49940 -72.86796 32018 ft 468 kts 263°
2026-04-28 17:11 18.49001 -72.93576 32018 ft 468 kts 263°
2026-04-28 17:12 18.48087 -73.00325 32018 ft 468 kts 263°
2026-04-28 17:12 18.47176 -73.07107 32020 ft 467 kts 263°
2026-04-28 17:13 18.46270 -73.13827 32021 ft 466 kts 263°
2026-04-28 17:13 18.45357 -73.20565 32021 ft 465 kts 263°
2026-04-28 17:14 18.44444 -73.27293 32022 ft 465 kts 263°
2026-04-28 17:14 18.43527 -73.34032 32021 ft 465 kts 263°
2026-04-28 17:15 18.42608 -73.40765 32020 ft 465 kts 263°
2026-04-28 17:15 18.41688 -73.47484 32019 ft 465 kts 263°
2026-04-28 17:16 18.40769 -73.54184 32018 ft 465 kts 263°
2026-04-28 17:16 18.39840 -73.60935 32018 ft 465 kts 263°
2026-04-28 17:17 18.38912 -73.67664 32018 ft 465 kts 263°
2026-04-28 17:17 18.37987 -73.74353 32019 ft 465 kts 263°
2026-04-28 17:18 18.37054 -73.81081 32020 ft 465 kts 263°
2026-04-28 17:18 18.36118 -73.87811 32021 ft 465 kts 263°
2026-04-28 17:19 18.35182 -73.94521 32022 ft 465 kts 263°
2026-04-28 17:19 18.34244 -74.01236 32031 ft 465 kts 263°
2026-04-28 17:20 18.33457 -74.06848 32038 ft 465 kts 263°
2026-04-28 17:20 18.32363 -74.14640 32045 ft 465 kts 263°
2026-04-28 17:21 18.31417 -74.21353 32050 ft 464 kts 263°
2026-04-28 17:22 18.29994 -74.31424 32059 ft 464 kts 263°
2026-04-28 17:22 18.29040 -74.38150 32068 ft 464 kts 263°
2026-04-28 17:23 18.27612 -74.48189 32071 ft 464 kts 263°
2026-04-28 17:23 18.26653 -74.54910 32073 ft 464 kts 263°
2026-04-28 17:24 18.25694 -74.61613 32074 ft 464 kts 263°
2026-04-28 17:24 18.25211 -74.68321 32084 ft 460 kts 277°
2026-04-28 17:25 18.27179 -74.78159 32073 ft 460 kts 283°
2026-04-28 17:26 18.28430 -74.84775 32075 ft 460 kts 282°
2026-04-28 17:26 18.29615 -74.91387 32075 ft 460 kts 282°
2026-04-28 17:27 18.30809 -74.97956 32074 ft 460 kts 282°
2026-04-28 17:27 18.32009 -75.04582 32073 ft 460 kts 282°
2026-04-28 17:28 18.33201 -75.11173 32072 ft 459 kts 282°
2026-04-28 17:28 18.34992 -75.21072 32057 ft 459 kts 282°
2026-04-28 17:29 18.36216 -75.27855 32042 ft 459 kts 282°
2026-04-28 17:30 18.37998 -75.37758 32020 ft 460 kts 282°
2026-04-28 17:30 18.39772 -75.47652 32018 ft 460 kts 282°
2026-04-28 17:31 18.41537 -75.57518 32020 ft 460 kts 282°
2026-04-28 17:32 18.43309 -75.67461 32022 ft 460 kts 282°
2026-04-28 17:32 18.44477 -75.74030 32022 ft 459 kts 282°
2026-04-28 17:33 18.45653 -75.80656 32020 ft 460 kts 282°
2026-04-28 17:33 18.46622 -75.86127 32021 ft 460 kts 282°
2026-04-28 17:34 18.47990 -75.93869 32018 ft 460 kts 282°
2026-04-28 17:34 18.49149 -76.00440 32019 ft 460 kts 282°
2026-04-28 17:35 18.50311 -76.07044 32020 ft 460 kts 282°
2026-04-28 17:35 18.51472 -76.13672 32021 ft 460 kts 281°
2026-04-28 17:36 18.52608 -76.20293 32021 ft 460 kts 281°
2026-04-28 17:36 18.53762 -76.26920 32021 ft 460 kts 282°
2026-04-28 17:37 18.54916 -76.33527 32020 ft 460 kts 282°
2026-04-28 17:37 18.56062 -76.40115 32020 ft 460 kts 282°
2026-04-28 17:38 18.57215 -76.46757 32018 ft 460 kts 282°
2026-04-28 17:38 18.58353 -76.53332 32018 ft 460 kts 282°
2026-04-28 17:39 18.59504 -76.59986 32017 ft 460 kts 282°
2026-04-28 17:40 18.61215 -76.69916 32022 ft 460 kts 281°
2026-04-28 17:40 18.62347 -76.76502 32020 ft 460 kts 281°
2026-04-28 17:41 18.63484 -76.83134 32018 ft 460 kts 281°
2026-04-28 17:41 18.64614 -76.89732 32018 ft 461 kts 281°
2026-04-28 17:42 18.65751 -76.96392 32020 ft 462 kts 281°
2026-04-28 17:42 18.66881 -77.03022 32021 ft 462 kts 281°
2026-04-28 17:43 18.68018 -77.09712 32025 ft 462 kts 281°
2026-04-28 17:43 18.69148 -77.16373 32032 ft 462 kts 281°
2026-04-28 17:44 18.70275 -77.23028 32040 ft 462 kts 281°
2026-04-28 17:44 18.71402 -77.29702 32047 ft 462 kts 281°
2026-04-28 17:45 18.72522 -77.36347 32046 ft 462 kts 281°
2026-04-28 17:45 18.73643 -77.43013 32047 ft 462 kts 281°
2026-04-28 17:46 18.74762 -77.49682 32047 ft 462 kts 281°
2026-04-28 17:46 18.75873 -77.56319 32048 ft 462 kts 281°
2026-04-28 17:47 18.76988 -77.62995 32048 ft 462 kts 281°
2026-04-28 17:47 18.78098 -77.69659 32047 ft 462 kts 280°
2026-04-28 17:48 18.79211 -77.76353 32045 ft 462 kts 280°
2026-04-28 17:48 18.80317 -77.83019 32045 ft 462 kts 280°
2026-04-28 17:49 18.81420 -77.89683 32045 ft 462 kts 280°
2026-04-28 17:49 18.82520 -77.96343 32047 ft 462 kts 280°
2026-04-28 17:50 18.83620 -78.03019 32048 ft 462 kts 280°
2026-04-28 17:50 18.84712 -78.09662 32048 ft 462 kts 280°
2026-04-28 17:51 18.85808 -78.16345 32047 ft 462 kts 280°
2026-04-28 17:51 18.86896 -78.22996 32046 ft 462 kts 280°
2026-04-28 17:52 18.87989 -78.29687 32044 ft 462 kts 280°
2026-04-28 17:52 18.89613 -78.39663 32048 ft 461 kts 281°
2026-04-28 17:53 18.90698 -78.46346 32047 ft 460 kts 280°
2026-04-28 17:53 18.91765 -78.52926 32046 ft 456 kts 280°
2026-04-28 17:54 18.92831 -78.59534 32045 ft 456 kts 280°
2026-04-28 17:54 18.93896 -78.66146 32048 ft 455 kts 279°
2026-04-28 17:55 18.94953 -78.72718 32048 ft 454 kts 279°
2026-04-28 17:55 18.96003 -78.79265 32050 ft 453 kts 279°
2026-04-28 17:56 18.97047 -78.85786 32052 ft 452 kts 279°
2026-04-28 17:56 18.98091 -78.92319 32061 ft 451 kts 279°
2026-04-28 17:57 18.99134 -78.98867 32066 ft 450 kts 279°
2026-04-28 17:57 19.00170 -79.05381 32070 ft 450 kts 279°
2026-04-28 17:58 19.01200 -79.11877 32072 ft 449 kts 279°
2026-04-28 17:58 19.02220 -79.18361 32073 ft 448 kts 278°
2026-04-28 17:59 19.03180 -79.24835 32072 ft 448 kts 278°
2026-04-28 17:59 19.04190 -79.31315 32071 ft 447 kts 279°
2026-04-28 18:00 19.05214 -79.37803 32072 ft 447 kts 279°
2026-04-28 18:00 19.06232 -79.44289 32075 ft 447 kts 279°
2026-04-28 18:01 19.07243 -79.50759 32074 ft 447 kts 279°
2026-04-28 18:01 19.08258 -79.57261 32070 ft 447 kts 279°
2026-04-28 18:02 19.09265 -79.63728 32074 ft 447 kts 279°
2026-04-28 18:02 19.10274 -79.70232 32074 ft 448 kts 278°
2026-04-28 18:03 19.11276 -79.76699 32074 ft 448 kts 278°
2026-04-28 18:03 19.12275 -79.83162 32074 ft 447 kts 278°
2026-04-28 18:04 19.13275 -79.89649 32073 ft 447 kts 278°
2026-04-28 18:04 19.14273 -79.96139 32072 ft 447 kts 278°
2026-04-28 18:05 19.15099 -80.01517 32072 ft 447 kts 278°
2026-04-28 18:05 19.16263 -80.09123 32073 ft 447 kts 278°
2026-04-28 18:06 19.17248 -80.15574 32074 ft 447 kts 278°
2026-04-28 18:06 19.18240 -80.22084 32073 ft 447 kts 278°
2026-04-28 18:07 19.19225 -80.28567 32070 ft 447 kts 278°
2026-04-28 18:07 19.20209 -80.35057 32075 ft 447 kts 278°
2026-04-28 18:08 19.21192 -80.41556 32074 ft 447 kts 278°
2026-04-28 18:08 19.22168 -80.48019 32067 ft 448 kts 278°
2026-04-28 18:09 19.23146 -80.54517 32059 ft 448 kts 278°
2026-04-28 18:09 19.24122 -80.61021 32050 ft 448 kts 278°
2026-04-28 18:10 19.25094 -80.67516 32050 ft 448 kts 278°
2026-04-28 18:10 19.26063 -80.74002 32047 ft 448 kts 278°
2026-04-28 18:11 19.27034 -80.80532 32046 ft 448 kts 278°
2026-04-28 18:11 19.27967 -80.87039 32047 ft 448 kts 278°
2026-04-28 18:12 19.28963 -80.93802 32047 ft 448 kts 278°
2026-04-28 18:12 19.29946 -81.00429 32047 ft 449 kts 278°
2026-04-28 18:13 19.30907 -81.06943 32048 ft 449 kts 278°
2026-04-28 18:13 19.31864 -81.13448 32048 ft 450 kts 278°
2026-04-28 18:14 19.32826 -81.20001 32048 ft 450 kts 278°
2026-04-28 18:14 19.33781 -81.26524 32047 ft 450 kts 278°
2026-04-28 18:15 19.34732 -81.33036 32046 ft 450 kts 278°
2026-04-28 18:15 19.35680 -81.39548 32045 ft 450 kts 278°
2026-04-28 18:16 19.36633 -81.46108 32048 ft 450 kts 278°
2026-04-28 18:16 19.37577 -81.52622 32046 ft 450 kts 278°
2026-04-28 18:17 19.38524 -81.59171 32046 ft 450 kts 278°
2026-04-28 18:17 19.39399 -81.65241 32046 ft 450 kts 277°
2026-04-28 18:18 19.40339 -81.71785 32046 ft 450 kts 277°
2026-04-28 18:18 19.41117 -81.77204 32047 ft 450 kts 277°
2026-04-28 18:19 19.42208 -81.84835 32046 ft 450 kts 277°
2026-04-28 18:19 19.43143 -81.91383 32045 ft 450 kts 277°
2026-04-28 18:20 19.44076 -81.97939 32047 ft 450 kts 277°
2026-04-28 18:20 19.45029 -82.04483 32047 ft 450 kts 279°
2026-04-28 18:21 19.46413 -82.10922 32046 ft 450 kts 283°
2026-04-28 18:21 19.47976 -82.17368 32047 ft 450 kts 283°
2026-04-28 18:22 19.49486 -82.23795 32047 ft 450 kts 283°
2026-04-28 18:22 19.50985 -82.30233 32045 ft 450 kts 283°
2026-04-28 18:23 19.52486 -82.36674 32044 ft 450 kts 283°
2026-04-28 18:23 19.53984 -82.43105 32048 ft 450 kts 283°
2026-04-28 18:24 19.55228 -82.48461 32046 ft 450 kts 283°
2026-04-28 18:24 19.56971 -82.55976 32043 ft 450 kts 283°
2026-04-28 18:25 19.58468 -82.62441 32046 ft 450 kts 283°
2026-04-28 18:26 19.60702 -82.72111 32046 ft 450 kts 282°
2026-04-28 18:26 19.62183 -82.78539 32047 ft 450 kts 282°
2026-04-28 18:27 19.63676 -82.85023 32047 ft 450 kts 282°
2026-04-28 18:27 19.65149 -82.91434 32047 ft 450 kts 282°
2026-04-28 18:28 19.66627 -82.97879 32046 ft 449 kts 282°
2026-04-28 18:28 19.68099 -83.04312 32045 ft 449 kts 282°
2026-04-28 18:29 19.69567 -83.10732 32045 ft 449 kts 282°
2026-04-28 18:29 19.71032 -83.17153 32047 ft 449 kts 282°
2026-04-28 18:30 19.72495 -83.23576 32047 ft 449 kts 282°
2026-04-28 18:30 19.73963 -83.30037 32048 ft 449 kts 282°
2026-04-28 18:31 19.75421 -83.36458 32047 ft 449 kts 282°
2026-04-28 18:31 19.76877 -83.42886 32046 ft 449 kts 282°
2026-04-28 18:32 19.78333 -83.49324 32043 ft 449 kts 282°
2026-04-28 18:32 19.79786 -83.55760 32047 ft 449 kts 282°
2026-04-28 18:33 19.81239 -83.62207 32046 ft 449 kts 282°
2026-04-28 18:33 19.82685 -83.68636 32048 ft 449 kts 282°
2026-04-28 18:34 19.84140 -83.75116 32045 ft 449 kts 282°
2026-04-28 18:34 19.85576 -83.81525 32047 ft 449 kts 282°
2026-04-28 18:35 19.87026 -83.88005 32047 ft 449 kts 282°
2026-04-28 18:35 19.88465 -83.94448 32050 ft 449 kts 282°
2026-04-28 18:36 19.89900 -84.00884 32048 ft 449 kts 282°
2026-04-28 18:36 19.91341 -84.07358 32049 ft 449 kts 282°
2026-04-28 18:37 19.92769 -84.13784 32049 ft 449 kts 282°
2026-04-28 18:37 19.94204 -84.20254 32048 ft 449 kts 282°
2026-04-28 18:38 19.95624 -84.26669 32046 ft 449 kts 282°
2026-04-28 18:38 19.97052 -84.33134 32044 ft 449 kts 282°
2026-04-28 18:39 19.98466 -84.39542 32045 ft 449 kts 282°
2026-04-28 18:39 19.99893 -84.46027 32045 ft 449 kts 282°
2026-04-28 18:40 20.01305 -84.52451 32044 ft 449 kts 282°
2026-04-28 18:40 20.02718 -84.58895 32048 ft 449 kts 282°
2026-04-28 18:41 20.04133 -84.65352 32047 ft 449 kts 282°
2026-04-28 18:41 20.05545 -84.71818 32047 ft 449 kts 282°
2026-04-28 18:42 20.06950 -84.78259 32046 ft 449 kts 282°
2026-04-28 18:42 20.08358 -84.84724 32047 ft 449 kts 282°
2026-04-28 18:43 20.09766 -84.91206 32048 ft 449 kts 282°
2026-04-28 18:43 20.11166 -84.97653 32046 ft 449 kts 282°
2026-04-28 18:44 20.12567 -85.04125 32043 ft 450 kts 281°
2026-04-28 18:44 20.14677 -85.13890 32048 ft 452 kts 281°
2026-04-28 18:45 20.16083 -85.20416 32047 ft 454 kts 281°
2026-04-28 18:45 20.17500 -85.27000 32045 ft 456 kts 281°
2026-04-28 18:46 20.18926 -85.33573 32040 ft 457 kts 283°
2026-04-28 18:46 20.20840 -85.39999 32037 ft 459 kts 288°
2026-04-28 18:47 20.23051 -85.46394 32033 ft 459 kts 288°
2026-04-28 18:47 20.25186 -85.52731 31889 ft 454 kts 288°
2026-04-28 18:48 20.26233 -85.55868 31561 ft 449 kts 288°
2026-04-28 18:48 20.27278 -85.59006 31019 ft 447 kts 288°
2026-04-28 18:48 20.28309 -85.62098 30363 ft 447 kts 288°
2026-04-28 18:48 20.29351 -85.65223 29648 ft 448 kts 287°
2026-04-28 18:49 20.30399 -85.68358 28895 ft 450 kts 288°
2026-04-28 18:49 20.30741 -85.69383 28643 ft 451 kts 288°
2026-04-28 18:49 20.32496 -85.74654 27331 ft 455 kts 288°
2026-04-28 18:49 20.33551 -85.77830 26544 ft 458 kts 288°
2026-04-28 18:50 20.34607 -85.81009 25802 ft 459 kts 288°
2026-04-28 18:50 20.35667 -85.84203 25114 ft 459 kts 288°
2026-04-28 18:50 20.36732 -85.87415 24471 ft 458 kts 288°
2026-04-28 18:50 20.37797 -85.90630 23865 ft 457 kts 288°
2026-04-28 18:51 20.38837 -85.93771 23297 ft 455 kts 288°
2026-04-28 18:51 20.39893 -85.96958 22732 ft 452 kts 288°
2026-04-28 18:51 20.40927 -86.00087 22187 ft 450 kts 288°
2026-04-28 18:51 20.41963 -86.03221 21646 ft 447 kts 288°
2026-04-28 18:52 20.42991 -86.06335 21110 ft 444 kts 288°
2026-04-28 18:52 20.44009 -86.09419 20581 ft 441 kts 288°
2026-04-28 18:52 20.45024 -86.12498 20052 ft 438 kts 288°
2026-04-28 18:52 20.46020 -86.15517 19532 ft 435 kts 288°
2026-04-28 18:53 20.47022 -86.18560 19004 ft 432 kts 288°
2026-04-28 18:53 20.48009 -86.21561 18480 ft 429 kts 288°
2026-04-28 18:53 20.48983 -86.24524 17815 ft 430 kts 288°
2026-04-28 18:53 20.49961 -86.27522 17178 ft 419 kts 288°
2026-04-28 18:54 20.50239 -86.28374 17032 ft 415 kts 288°